Time,TemperatureF,DewpointF,PressureIn,WindDirection,WindDirectionDegrees,WindSpeedMPH,WindSpeedGustMPH,Humidity,HourlyPrecipIn,Conditions,Clouds,dailyrainin,SolarRadiationWatts/m^2,SoftwareType,DateUTC
2013-12-27 02:52:00,29.0,27.0,-100.00,NW,308,1.0,7.0,93,-99.99,,,0.07,0.000000,,2013-12-27 10:52:00,
2013-12-27 03:02:00,29.0,27.0,-100.00,NW,308,1.0,7.0,93,-99.99,,,0.07,0.000000,,2013-12-27 11:02:00,
2013-12-27 06:52:00,29.0,27.0,-100.00,NE,56,1.0,7.0,93,-99.99,,,0.07,0.000000,,2013-12-27 14:52:00,
2013-12-27 07:02:00,29.0,27.0,-100.00,NE,56,1.0,7.0,93,-99.99,,,0.07,0.000000,,2013-12-27 15:02:00,
2013-12-27 08:53:00,30.0,28.0,-100.00,NE,47,2.0,6.0,93,-99.99,,,0.07,1.000000,,2013-12-27 16:53:00,
2013-12-27 09:02:00,30.0,28.0,-100.00,NE,47,2.0,6.0,93,-99.99,,,0.07,1.000000,,2013-12-27 17:02:00,
2013-12-27 09:43:00,31.0,29.0,-100.00,NW,314,2.0,7.0,92,-99.99,,,0.07,20.000000,,2013-12-27 17:43:00,
2013-12-27 12:42:00,37.0,34.0,-100.00,SSE,151,1.0,5.0,89,-99.99,,,0.07,125.000000,,2013-12-27 20:42:00,
2013-12-27 13:43:00,45.0,35.0,-100.00,West,271,3.0,10.0,68,-99.99,,,0.08,301.000000,,2013-12-27 21:43:00,
2013-12-27 13:53:00,45.0,35.0,-100.00,West,271,3.0,10.0,68,-99.99,,,0.08,301.000000,,2013-12-27 21:53:00,
2013-12-27 14:03:00,45.0,35.0,-100.00,West,271,3.0,10.0,68,-99.99,,,0.08,301.000000,,2013-12-27 22:03:00,
2013-12-27 17:42:00,39.0,37.0,-100.00,East,99,2.0,8.0,94,0.04,,,0.17,0.000000,,2013-12-28 01:42:00,
2013-12-27 17:52:00,39.0,37.0,-100.00,East,99,2.0,8.0,94,0.04,,,0.17,0.000000,,2013-12-28 01:52:00,
2013-12-27 18:01:00,39.0,37.0,-100.00,East,99,2.0,8.0,94,0.04,,,0.17,0.000000,,2013-12-28 02:01:00,
2013-12-27 20:42:00,35.0,33.0,-100.00,West,279,1.0,6.0,93,-99.99,,,0.20,0.000000,,2013-12-28 04:42:00,
2013-12-27 20:52:00,35.0,33.0,-100.00,West,279,1.0,6.0,93,-99.99,,,0.20,0.000000,,2013-12-28 04:52:00,
2013-12-27 21:02:00,35.0,33.0,-100.00,West,279,1.0,6.0,93,-99.99,,,0.20,0.000000,,2013-12-28 05:02:00,
2013-12-27 21:43:00,36.0,34.0,-100.00,NE,53,1.0,6.0,93,0.01,,,0.21,0.000000,,2013-12-28 05:43:00,
2013-12-27 21:53:00,36.0,34.0,-100.00,NE,53,1.0,6.0,93,0.01,,,0.21,0.000000,,2013-12-28 05:53:00,
2013-12-27 22:02:00,36.0,34.0,-100.00,NE,53,1.0,6.0,93,0.01,,,0.21,0.000000,,2013-12-28 06:02:00,
2013-12-27 22:42:00,34.0,32.0,-100.00,WSW,237,1.0,6.0,93,0.01,,,0.22,0.000000,,2013-12-28 06:42:00,
2013-12-27 22:52:00,34.0,32.0,-100.00,WSW,237,1.0,6.0,93,0.01,,,0.22,0.000000,,2013-12-28 06:52:00,
2013-12-27 23:02:00,34.0,32.0,-100.00,WSW,237,1.0,6.0,93,0.01,,,0.22,0.000000,,2013-12-28 07:02:00,
2013-12-27 23:42:00,32.0,30.0,-100.00,SW,229,1.0,4.0,93,0.00,,,0.22,0.000000,,2013-12-28 07:42:00,
2013-12-27 23:52:00,32.0,30.0,-100.00,SW,229,1.0,4.0,93,0.00,,,0.22,0.000000,,2013-12-28 07:52:00,